| time (UTC) | temp C | wind direction | speed KPH | gust KPH | rain 1hr cm | rain 24hr cm | rain mn cm | humidity % | barometer mb |
| 20260507075841 | 10 | 4 | 3.2 | 8.0 | 0.00 | 1.98 | 0.00 | 79 | 1010.3 |
| 20260507075338 | 10 | 8 | 3.2 | 6.4 | 0.00 | 1.98 | 0.00 | 79 | 1010.3 |
| 20260507074855 | 10 | 4 | 1.6 | 8.0 | 0.00 | 1.98 | 0.00 | 80 | 1010.5 |
| 20260507074352 | 10 | 357 | 1.6 | 8.0 | 0.00 | 1.98 | 0.00 | 80 | 1010.6 |
| 20260507073848 | 10 | 8 | 1.6 | 8.0 | 0.00 | 1.98 | 0.00 | 82 | 1010.6 |
| 20260507073344 | 10 | 285 | 0.0 | 4.8 | 0.00 | 1.98 | 0.00 | 84 | 1010.5 |
| 20260507072839 | 10 | 22 | 0.0 | 6.4 | 0.00 | 1.98 | 0.00 | 85 | 1010.6 |
| 20260507072337 | 10 | 60 | 0.0 | 6.4 | 0.00 | 1.98 | 0.00 | 84 | 1010.6 |
| 20260507071853 | 10 | 5 | 0.0 | 3.2 | 0.00 | 1.98 | 0.00 | 85 | 1010.6 |
| 20260507071350 | 10 | 5 | 0.0 | 4.8 | 0.00 | 1.98 | 0.00 | 85 | 1010.6 |
| 20260507070847 | 10 | 26 | 0.0 | 6.4 | 0.00 | 1.98 | 0.00 | 85 | 1010.6 |
| 20260507070344 | 10 | 301 | 0.0 | 6.4 | 0.00 | 1.98 | 0.00 | 85 | 1010.7 |
| 20260507065837 | 10 | 23 | 0.0 | 6.4 | 0.00 | 1.98 | 0.00 | 85 | 1010.7 |
| 20260507065338 | 10 | 12 | 0.0 | 3.2 | 0.00 | 1.98 | 0.00 | 85 | 1010.6 |
| 20260507064911 | 10 | 23 | 0.0 | 8.0 | 0.00 | 1.98 | 0.00 | 85 | 1010.6 |
| 20260507064351 | 10 | 8 | 1.6 | 8.0 | 0.00 | 1.98 | 0.00 | 84 | 1010.7 |
| 20260507063850 | 10 | 1 | 3.2 | 8.0 | 0.00 | 1.98 | 0.00 | 85 | 1010.7 |
| 20260507063348 | 10 | 338 | 0.0 | 8.0 | 0.00 | 1.98 | 0.00 | 86 | 1010.7 |
| 20260507062904 | 10 | 60 | 0.0 | 8.0 | 0.00 | 1.98 | 0.00 | 87 | 1010.6 |
| 20260507062340 | 10 | 1 | 4.8 | 8.0 | 0.00 | 1.98 | 0.00 | 87 | 1010.6 |
| 20260507061837 | 10 | 19 | 0.0 | 8.0 | 0.00 | 1.98 | 0.00 | 87 | 1010.6 |
| 20260507061416 | 10 | 23 | 4.8 | 12.9 | 0.00 | 1.98 | 0.00 | 87 | 1010.7 |
| 20260507060852 | 10 | 344 | 6.4 | 12.9 | 0.00 | 1.98 | 0.00 | 87 | 1010.6 |
| 20260507060410 | 10 | 32 | 1.6 | 8.0 | 0.00 | 1.98 | 0.00 | 87 | 1010.7 |
| 20260507055840 | 10 | 15 | 4.8 | 8.0 | 0.00 | 1.98 | 0.00 | 88 | 1010.5 |
| 20260507055339 | 10 | 51 | 4.8 | 8.0 | 0.00 | 1.98 | 0.00 | 88 | 1010.4 |
| 20260507054856 | 10 | 40 | 1.6 | 9.7 | 0.00 | 1.98 | 1.98 | 88 | 1010.5 |
| 20260507054352 | 11 | 19 | 3.2 | 9.7 | 0.00 | 1.98 | 1.98 | 87 | 1010.5 |
| 20260507053849 | 11 | 13 | 3.2 | 8.0 | 0.00 | 1.98 | 1.98 | 87 | 1010.4 |
| 20260507053344 | 10 | 15 | 4.8 | 6.4 | 0.00 | 1.98 | 1.98 | 88 | 1010.4 |
| 20260507052837 | 10 | 19 | 0.0 | 8.0 | 0.00 | 1.98 | 1.98 | 88 | 1010.7 |
| 20260507052354 | 10 | 19 | 3.2 | 9.7 | 0.00 | 1.98 | 1.98 | 88 | 1010.6 |
| 20260507051852 | 10 | 5 | 3.2 | 9.7 | 0.00 | 1.98 | 1.98 | 88 | 1010.7 |
| 20260507051349 | 10 | 8 | 4.8 | 9.7 | 0.00 | 1.98 | 1.98 | 88 | 1010.4 |
| 20260507050850 | 10 | 9 | 6.4 | 11.3 | 0.00 | 1.98 | 1.98 | 88 | 1010.3 |
| 20260507050345 | 10 | 276 | 0.0 | 11.3 | 0.00 | 1.98 | 1.98 | 88 | 1010.5 |
| 20260507045837 | 10 | 12 | 3.2 | 9.7 | 0.00 | 1.98 | 1.98 | 88 | 1010.5 |
| 20260507045353 | 11 | 1 | 3.2 | 11.3 | 0.00 | 1.98 | 1.98 | 88 | 1010.4 |
| 20260507044848 | 11 | 22 | 4.8 | 11.3 | 0.00 | 1.98 | 1.98 | 88 | 1010.6 |
| 20260507044343 | 11 | 103 | 4.8 | 8.0 | 0.00 | 1.98 | 1.98 | 88 | 1010.6 |
| 20260507043839 | 11 | 18 | 1.6 | 8.0 | 0.00 | 1.98 | 1.98 | 88 | 1010.5 |
| 20260507043417 | 11 | 4 | 4.8 | 9.7 | 0.00 | 1.98 | 1.98 | 87 | 1010.5 |
| 20260507042910 | 11 | 19 | 1.6 | 14.5 | 0.00 | 1.98 | 1.98 | 86 | 1010.5 |
| 20260507042343 | 11 | 5 | 8.0 | 14.5 | 0.00 | 1.98 | 1.98 | 86 | 1010.6 |
| 20260507041857 | 11 | 37 | 6.4 | 12.9 | 0.00 | 1.98 | 1.98 | 85 | 1010.7 |
| 20260507041354 | 11 | 13 | 6.4 | 12.9 | 0.00 | 1.98 | 1.98 | 85 | 1010.6 |
| 20260507040851 | 11 | 29 | 3.2 | 8.0 | 0.00 | 1.98 | 1.98 | 86 | 1010.5 |
| 20260507040406 | 11 | 8 | 4.8 | 8.0 | 0.00 | 1.98 | 1.98 | 86 | 1010.6 |
| 20260507035843 | 11 | 8 | 0.0 | 6.4 | 0.00 | 1.98 | 1.98 | 86 | 1010.6 |
| 20260507035339 | 11 | 355 | 1.6 | 14.5 | 0.00 | 1.98 | 1.98 | 86 | 1010.3 |
| 20260507034854 | 11 | 323 | 4.8 | 14.5 | 0.00 | 1.98 | 1.98 | 85 | 1010.3 |
| 20260507034351 | 11 | 13 | 3.2 | 11.3 | 0.00 | 1.98 | 1.98 | 86 | 1010.3 |
| 20260507033845 | 11 | 5 | 6.4 | 9.7 | 0.00 | 1.98 | 1.98 | 86 | 1009.9 |
| 20260507033341 | 11 | 25 | 4.8 | 12.9 | 0.00 | 1.98 | 1.98 | 87 | 1009.9 |
| 20260507032854 | 11 | 18 | 6.4 | 12.9 | 0.00 | 1.98 | 1.98 | 86 | 1010.1 |
| 20260507032351 | 11 | 350 | 3.2 | 11.3 | 0.00 | 1.98 | 1.98 | 87 | 1010.0 |
| 20260507031847 | 12 | 360 | 4.8 | 9.7 | 0.00 | 1.98 | 1.98 | 87 | 1010.0 |
| 20260507031343 | 12 | 9 | 0.0 | 12.9 | 0.00 | 1.98 | 1.98 | 87 | 1010.3 |
| 20260507030842 | 12 | 41 | 0.0 | 12.9 | 0.00 | 1.98 | 1.98 | 86 | 1010.2 |
| 20260507030338 | 12 | 32 | 4.8 | 11.3 | 0.00 | 1.98 | 1.98 | 86 | 1010.2 |
| 20260507025850 | 12 | 16 | 1.6 | 11.3 | 0.00 | 1.98 | 1.98 | 86 | 1010.1 |
| 20260507025406 | 12 | 43 | 1.6 | 11.3 | 0.00 | 1.98 | 1.98 | 85 | 1010.0 |
| 20260507024838 | 12 | 355 | 1.6 | 11.3 | 0.00 | 1.98 | 1.98 | 85 | 1010.1 |
| 20260507024355 | 12 | 283 | 8.0 | 16.1 | 0.00 | 1.98 | 1.98 | 85 | 1010.1 |
| 20260507023852 | 12 | 351 | 4.8 | 16.1 | 0.00 | 1.98 | 1.98 | 85 | 1010.0 |
| 20260507023349 | 12 | 359 | 1.6 | 17.7 | 0.00 | 1.98 | 1.98 | 86 | 1009.9 |
| 20260507022842 | 12 | 344 | 9.7 | 17.7 | 0.00 | 1.98 | 1.98 | 86 | 1009.8 |
| 20260507022358 | 12 | 18 | 4.8 | 16.1 | 0.00 | 1.98 | 1.98 | 87 | 1009.8 |
| 20260507021855 | 12 | 359 | 8.0 | 14.5 | 0.00 | 1.98 | 1.98 | 89 | 1009.7 |
| 20260507021350 | 12 | 16 | 4.8 | 11.3 | 0.00 | 1.98 | 1.98 | 89 | 1009.8 |
| 20260507020846 | 12 | 22 | 4.8 | 11.3 | 0.00 | 1.98 | 1.98 | 89 | 1009.9 |
| 20260507020341 | 12 | 25 | 4.8 | 11.3 | 0.00 | 1.98 | 1.98 | 89 | 1010.0 |
| 20260507015916 | 12 | 9 | 6.4 | 11.3 | 0.00 | 1.98 | 1.98 | 88 | 1009.9 |
| 20260507015353 | 13 | 348 | 6.4 | 16.1 | 0.00 | 1.98 | 1.98 | 88 | 1009.9 |
| 20260507014847 | 13 | 354 | 4.8 | 16.1 | 0.00 | 1.98 | 1.98 | 88 | 1009.9 |
| 20260507014343 | 13 | 351 | 3.2 | 11.3 | 0.00 | 1.98 | 1.98 | 89 | 1010.1 |
| 20260507013840 | 13 | 358 | 1.6 | 14.5 | 0.00 | 1.98 | 1.98 | 90 | 1010.2 |
| 20260507013354 | 13 | 13 | 4.8 | 14.5 | 0.00 | 1.98 | 1.98 | 89 | 1010.1 |
| 20260507012850 | 13 | 15 | 4.8 | 16.1 | 0.00 | 1.98 | 1.98 | 90 | 1010.1 |
| 20260507012406 | 13 | 32 | 6.4 | 16.1 | 0.00 | 1.98 | 1.98 | 90 | 1010.0 |
| 20260507011842 | 13 | 343 | 9.7 | 16.1 | 0.00 | 1.98 | 1.98 | 90 | 1009.8 |
| 20260507011340 | 13 | 333 | 6.4 | 14.5 | 0.00 | 1.98 | 1.98 | 91 | 1009.9 |
| 20260507010840 | 13 | 15 | 4.8 | 12.9 | 0.00 | 1.98 | 1.98 | 91 | 1009.7 |
| 20260507010355 | 14 | 29 | 8.0 | 11.3 | 0.00 | 1.98 | 1.98 | 91 | 1009.7 |
| 20260507005851 | 14 | 352 | 3.2 | 9.7 | 0.00 | 1.98 | 1.98 | 92 | 1009.6 |
| 20260507005348 | 15 | 27 | 0.0 | 8.0 | 0.00 | 1.98 | 1.98 | 92 | 1009.4 |
| 20260507004845 | 15 | 314 | 0.0 | 8.0 | 0.00 | 1.98 | 1.98 | 90 | 1009.3 |
| 20260507004341 | 15 | 253 | 0.0 | 3.2 | 0.00 | 1.98 | 1.98 | 91 | 1009.2 |
| 20260507003838 | 15 | 239 | 0.0 | 3.2 | 0.00 | 1.98 | 1.98 | 91 | 1009.0 |
| 20260507003354 | 15 | 236 | 0.0 | 14.5 | 0.00 | 1.98 | 1.98 | 90 | 1008.9 |
| 20260507002849 | 15 | 276 | 0.0 | 14.5 | 0.00 | 1.98 | 1.98 | 90 | 1008.9 |
| 20260507002405 | 15 | 260 | 1.6 | 6.4 | 0.00 | 1.98 | 1.98 | 90 | 1008.9 |
| 20260507001840 | 15 | 252 | 0.0 | 6.4 | 0.00 | 1.98 | 1.98 | 90 | 1008.5 |
| 20260507001356 | 15 | 233 | 0.0 | 8.0 | 0.00 | 1.98 | 1.98 | 91 | 1008.5 |
| 20260507000912 | 15 | 343 | 3.2 | 8.0 | 0.00 | 1.98 | 1.98 | 91 | 1008.3 |
| 20260507000350 | 15 | 263 | 0.0 | 6.4 | 0.00 | 1.98 | 1.98 | 92 | 1008.3 |
| 20260506235901 | 15 | 298 | 0.0 | 6.4 | 0.00 | 1.98 | 1.98 | 91 | 1008.0 |
| 20260506235355 | 15 | 252 | 0.0 | 6.4 | 0.00 | 1.98 | 1.98 | 91 | 1007.9 |
| 20260506234912 | 15 | 259 | 3.2 | 6.4 | 0.00 | 1.98 | 1.98 | 91 | 1007.8 |
| 20260506234347 | 15 | 269 | 1.6 | 6.4 | 0.00 | 1.98 | 1.98 | 92 | 1007.6 |
| 20260506233842 | 15 | 270 | 1.6 | 8.0 | 0.03 | 1.98 | 1.98 | 91 | 1007.6 |
| 20260506233417 | 16 | 18 | 0.0 | 11.3 | 0.08 | 1.98 | 1.98 | 91 | 1007.6 |
| 20260506232852 | 16 | 288 | 3.2 | 12.9 | 0.18 | 1.98 | 1.98 | 92 | 1007.6 |
| 20260506232347 | 16 | 239 | 1.6 | 12.9 | 0.66 | 1.98 | 1.98 | 94 | 1007.7 |
| 20260506231843 | 16 | 353 | 1.6 | 9.7 | 0.74 | 1.98 | 1.98 | 96 | 1007.8 |
| 20260506231343 | 16 | 264 | 1.6 | 9.7 | 0.84 | 1.98 | 1.98 | 96 | 1007.6 |
| 20260506230839 | 16 | 280 | 4.8 | 9.7 | 0.84 | 1.98 | 1.98 | 97 | 1007.5 |
| 20260506230355 | 16 | 284 | 3.2 | 9.7 | 0.84 | 1.98 | 1.98 | 97 | 1007.6 |
| 20260506225850 | 16 | 278 | 3.2 | 8.0 | 0.84 | 1.98 | 1.98 | 97 | 1007.5 |
| 20260506225348 | 16 | 239 | 3.2 | 4.8 | 0.84 | 1.98 | 1.98 | 97 | 1007.5 |
| 20260506224844 | 16 | 276 | 0.0 | 6.4 | 0.84 | 1.98 | 1.98 | 97 | 1007.5 |
| 20260506224400 | 16 | 276 | 3.2 | 9.7 | 0.84 | 1.98 | 1.98 | 97 | 1007.3 |
| 20260506223914 | 16 | 277 | 6.4 | 9.7 | 0.84 | 1.98 | 1.98 | 97 | 1007.3 |
| 20260506223350 | 16 | 308 | 3.2 | 12.9 | 0.79 | 1.93 | 1.93 | 97 | 1007.4 |
| 20260506222845 | 17 | 121 | 4.8 | 12.9 | 0.66 | 1.80 | 1.80 | 96 | 1007.1 |
| 20260506222338 | 17 | 280 | 8.0 | 11.3 | 0.18 | 1.32 | 1.32 | 95 | 1007.1 |
| 20260506221854 | 17 | 286 | 3.2 | 6.4 | 0.10 | 1.24 | 1.24 | 94 | 1007.0 |
| 20260506221411 | 18 | 281 | 0.0 | 9.7 | 0.00 | 1.14 | 1.14 | 92 | 1006.9 |
| 20260506220847 | 18 | 281 | 6.4 | 9.7 | 0.00 | 1.14 | 1.14 | 92 | 1006.8 |
| 20260506220342 | 18 | 291 | 1.6 | 6.4 | 0.00 | 1.14 | 1.14 | 91 | 1006.6 |
| 20260506215856 | 18 | 245 | 1.6 | 6.4 | 0.00 | 1.14 | 1.14 | 90 | 1006.6 |
| 20260506215413 | 18 | 245 | 3.2 | 6.4 | 0.00 | 1.14 | 1.14 | 89 | 1006.6 |
| 20260506214849 | 18 | 250 | 0.0 | 9.7 | 0.00 | 1.14 | 1.14 | 90 | 1006.6 |
| 20260506214344 | 18 | 242 | 4.8 | 9.7 | 0.00 | 1.14 | 1.14 | 89 | 1006.6 |
| 20260506213841 | 18 | 236 | 3.2 | 9.7 | 0.00 | 1.14 | 1.14 | 89 | 1006.4 |
| 20260506213357 | 18 | 242 | 1.6 | 8.0 | 0.00 | 1.14 | 1.14 | 91 | 1006.3 |
| 20260506212853 | 18 | 262 | 0.0 | 8.0 | 0.00 | 1.14 | 1.14 | 91 | 1006.4 |
| 20260506212409 | 18 | 259 | 4.8 | 9.7 | 0.00 | 1.14 | 1.14 | 91 | 1006.5 |
| 20260506211843 | 18 | 243 | 1.6 | 14.5 | 0.00 | 1.14 | 1.14 | 92 | 1006.5 |
| 20260506211359 | 18 | 253 | 9.7 | 14.5 | 0.00 | 1.14 | 1.14 | 91 | 1006.4 |
| 20260506210838 | 18 | 242 | 6.4 | 14.5 | 0.00 | 1.14 | 1.14 | 93 | 1006.4 |
| 20260506210411 | 18 | 226 | 4.8 | 14.5 | 0.00 | 1.14 | 1.14 | 93 | 1006.3 |
| 20260506205848 | 18 | 250 | 4.8 | 12.9 | 0.00 | 1.14 | 1.14 | 94 | 1006.3 |
| 20260506205345 | 18 | 246 | 3.2 | 9.7 | 0.00 | 1.14 | 1.14 | 95 | 1006.3 |
| 20260506204841 | 17 | 242 | 4.8 | 11.3 | 0.00 | 1.14 | 1.14 | 96 | 1006.3 |
| 20260506204358 | 18 | 236 | 1.6 | 11.3 | 0.00 | 1.14 | 1.14 | 97 | 1006.3 |
| 20260506203914 | 18 | 242 | 4.8 | 11.3 | 0.00 | 1.14 | 1.14 | 98 | 1006.2 |
| 20260506203351 | 18 | 203 | 3.2 | 12.9 | 0.00 | 1.14 | 1.14 | 100 | 1006.2 |
| 20260506202905 | 17 | 257 | 8.0 | 12.9 | 0.00 | 1.14 | 1.14 | 100 | 1006.2 |
| 20260506202401 | 17 | 233 | 3.2 | 9.7 | 0.00 | 1.14 | 1.14 | 100 | 1006.3 |
| 20260506201916 | 17 | 257 | 0.0 | 9.7 | 0.00 | 1.14 | 1.14 | 100 | 1006.3 |
| 20260506201352 | 17 | 226 | 4.8 | 9.7 | 0.00 | 1.14 | 1.14 | 100 | 1006.2 |
| 20260506200848 | 17 | 224 | 6.4 | 9.7 | 0.00 | 1.14 | 1.14 | 100 | 1006.2 |
| 20260506200406 | 17 | 235 | 3.2 | 8.0 | 0.00 | 1.14 | 1.14 | 100 | 1006.3 |
| 20260506195838 | 16 | 245 | 3.2 | 8.0 | 0.00 | 1.14 | 1.14 | 100 | 1006.4 |
| 20260506195413 | 16 | 229 | 3.2 | 8.0 | 0.00 | 1.14 | 1.14 | 100 | 1006.4 |
| 20260506194850 | 16 | 236 | 1.6 | 6.4 | 0.00 | 1.14 | 1.14 | 100 | 1006.6 |
| 20260506194347 | 16 | 242 | 1.6 | 6.4 | 0.00 | 1.14 | 1.14 | 100 | 1006.6 |
| 20260506193843 | 16 | 236 | 3.2 | 9.7 | 0.00 | 1.14 | 1.14 | 100 | 1006.6 |
| 20260506193400 | 16 | 239 | 1.6 | 9.7 | 0.00 | 1.14 | 1.14 | 100 | 1006.6 |
| 20260506192915 | 16 | 240 | 3.2 | 11.3 | 0.00 | 1.14 | 1.14 | 100 | 1006.6 |
| 20260506192349 | 16 | 226 | 6.4 | 11.3 | 0.00 | 1.14 | 1.14 | 100 | 1006.5 |
| 20260506191844 | 16 | 218 | 3.2 | 9.7 | 0.00 | 1.14 | 1.14 | 100 | 1006.5 |
| 20260506191340 | 16 | 263 | 4.8 | 14.5 | 0.00 | 1.14 | 1.14 | 100 | 1006.5 |
| 20260506190855 | 16 | 243 | 6.4 | 14.5 | 0.00 | 1.14 | 1.14 | 100 | 1006.6 |
| 20260506190412 | 16 | 214 | 4.8 | 16.1 | 0.00 | 1.14 | 1.14 | 100 | 1006.6 |
| 20260506185849 | 16 | 239 | 6.4 | 16.1 | 0.00 | 1.14 | 1.14 | 100 | 1006.6 |
| 20260506185346 | 16 | 278 | 4.8 | 14.5 | 0.00 | 1.14 | 1.14 | 100 | 1006.7 |
| 20260506184844 | 16 | 219 | 8.0 | 12.9 | 0.00 | 1.14 | 1.14 | 100 | 1006.8 |
| 20260506184340 | 16 | 248 | 4.8 | 12.9 | 0.00 | 1.14 | 1.14 | 100 | 1006.8 |
| 20260506183839 | 16 | 236 | 6.4 | 12.9 | 0.00 | 1.14 | 1.14 | 100 | 1006.8 |
| 20260506183355 | 16 | 255 | 6.4 | 17.7 | 0.00 | 1.14 | 1.14 | 100 | 1006.9 |
| 20260506182910 | 15 | 231 | 8.0 | 17.7 | 0.00 | 1.14 | 1.14 | 100 | 1006.9 |
| 20260506182344 | 16 | 215 | 4.8 | 17.7 | 0.00 | 1.14 | 1.14 | 100 | 1006.9 |
| 20260506181843 | 15 | 241 | 9.7 | 17.7 | 0.00 | 1.14 | 1.14 | 100 | 1007.0 |
| 20260506181339 | 15 | 245 | 4.8 | 12.9 | 0.00 | 1.14 | 1.14 | 100 | 1007.0 |
| 20260506180855 | 15 | 240 | 8.0 | 11.3 | 0.00 | 1.14 | 1.14 | 100 | 1007.0 |
| 20260506180351 | 15 | 253 | 4.8 | 11.3 | 0.00 | 1.14 | 1.14 | 100 | 1007.0 |
| 20260506175846 | 15 | 231 | 1.6 | 11.3 | 0.00 | 1.14 | 1.14 | 100 | 1007.2 |
| 20260506175343 | 15 | 265 | 3.2 | 12.9 | 0.00 | 1.14 | 1.14 | 100 | 1007.1 |
| 20260506174838 | 15 | 233 | 1.6 | 12.9 | 0.00 | 1.14 | 1.14 | 100 | 1007.1 |
| 20260506174355 | 15 | 245 | 6.4 | 12.9 | 0.00 | 1.14 | 1.14 | 100 | 1007.0 |
| 20260506173853 | 15 | 226 | 4.8 | 14.5 | 0.00 | 1.14 | 1.14 | 100 | 1007.1 |
| 20260506173350 | 15 | 259 | 6.4 | 14.5 | 0.00 | 1.14 | 1.14 | 100 | 1007.1 |
| 20260506172843 | 15 | 243 | 3.2 | 9.7 | 0.00 | 1.14 | 1.14 | 100 | 1007.1 |
| 20260506172338 | 15 | 242 | 1.6 | 14.5 | 0.00 | 1.14 | 1.14 | 100 | 1007.1 |
| 20260506171856 | 15 | 219 | 4.8 | 14.5 | 0.00 | 1.14 | 1.14 | 100 | 1007.1 |
| 20260506171352 | 15 | 194 | 0.0 | 8.0 | 0.00 | 1.14 | 1.14 | 100 | 1007.1 |
| 20260506170853 | 15 | 245 | 0.0 | 8.0 | 0.00 | 1.14 | 1.14 | 100 | 1007.2 |
| 20260506170349 | 15 | 229 | 0.0 | 14.5 | 0.00 | 1.14 | 1.14 | 100 | 1007.1 |
| 20260506165847 | 15 | 239 | 3.2 | 14.5 | 0.00 | 1.14 | 1.14 | 100 | 1007.2 |
| 20260506165403 | 15 | 245 | 3.2 | 11.3 | 0.00 | 1.14 | 1.14 | 100 | 1007.3 |
| 20260506164837 | 15 | 243 | 3.2 | 11.3 | 0.00 | 1.14 | 1.14 | 100 | 1007.3 |
| 20260506164354 | 15 | 240 | 3.2 | 11.3 | 0.00 | 1.14 | 1.14 | 100 | 1007.3 |
| 20260506163849 | 15 | 242 | 0.0 | 12.9 | 0.00 | 1.14 | 1.14 | 100 | 1007.3 |
| 20260506163347 | 15 | 200 | 4.8 | 12.9 | 0.03 | 1.14 | 1.14 | 100 | 1007.3 |
| 20260506162902 | 15 | 264 | 4.8 | 9.7 | 0.03 | 1.14 | 1.14 | 100 | 1007.3 |
| 20260506162337 | 15 | 257 | 1.6 | 9.7 | 0.05 | 1.14 | 1.14 | 100 | 1007.3 |
| 20260506161851 | 15 | 245 | 3.2 | 12.9 | 0.08 | 1.14 | 1.14 | 99 | 1007.4 |
| 20260506161347 | 15 | 246 | 6.4 | 12.9 | 0.10 | 1.14 | 1.14 | 99 | 1007.4 |
| 20260506160842 | 15 | 248 | 1.6 | 14.5 | 0.15 | 1.14 | 1.14 | 99 | 1007.5 |
| 20260506160338 | 15 | 212 | 4.8 | 16.1 | 0.18 | 1.14 | 1.14 | 99 | 1007.5 |
| 20260506155914 | 15 | 300 | 4.8 | 16.1 | 0.23 | 1.14 | 1.14 | 99 | 1007.4 |
| 20260506155349 | 15 | 232 | 0.0 | 8.0 | 0.25 | 1.14 | 1.14 | 99 | 1007.4 |
| 20260506154844 | 15 | 245 | 1.6 | 9.7 | 0.36 | 1.14 | 1.14 | 99 | 1007.3 |
| 20260506154341 | 15 | 253 | 4.8 | 9.7 | 0.46 | 1.14 | 1.14 | 99 | 1007.3 |
| 20260506153838 | 15 | 252 | 1.6 | 9.7 | 0.56 | 1.14 | 1.14 | 99 | 1007.1 |
| 20260506153414 | 15 | 248 | 1.6 | 9.7 | 0.61 | 1.14 | 1.14 | 99 | 1007.1 |
| 20260506152848 | 15 | 252 | 0.0 | 11.3 | 0.61 | 1.12 | 1.12 | 99 | 1007.4 |
| 20260506152345 | 15 | 242 | 3.2 | 11.3 | 0.61 | 1.09 | 1.09 | 99 | 1007.2 |
| 20260506151845 | 15 | 266 | 1.6 | 11.3 | 0.58 | 1.07 | 1.07 | 99 | 1007.3 |
| 20260506151341 | 15 | 225 | 4.8 | 11.3 | 0.56 | 1.04 | 1.04 | 99 | 1007.4 |
| 20260506150837 | 15 | 240 | 3.2 | 9.7 | 0.53 | 0.99 | 0.99 | 99 | 1007.4 |
| 20260506150353 | 15 | 249 | 1.6 | 11.3 | 0.53 | 0.97 | 0.97 | 99 | 1007.5 |
| 20260506145849 | 15 | 249 | 3.2 | 11.3 | 0.58 | 0.91 | 0.91 | 98 | 1007.7 |
| 20260506145347 | 15 | 240 | 3.2 | 9.7 | 0.61 | 0.89 | 0.89 | 98 | 1008.0 |
| 20260506144842 | 15 | 240 | 3.2 | 9.7 | 0.53 | 0.79 | 0.79 | 98 | 1008.3 |
| 20260506144339 | 15 | 240 | 4.8 | 9.7 | 0.46 | 0.69 | 0.69 | 98 | 1008.4 |
| 20260506143855 | 15 | 255 | 3.2 | 9.7 | 0.38 | 0.61 | 0.61 | 98 | 1008.4 |
| 20260506143353 | 15 | 243 | 0.0 | 8.0 | 0.36 | 0.53 | 0.53 | 97 | 1008.2 |
| 20260506142848 | 15 | 245 | 3.2 | 8.0 | 0.33 | 0.51 | 0.51 | 97 | 1008.1 |
| 20260506142404 | 15 | 256 | 1.6 | 4.8 | 0.33 | 0.51 | 0.51 | 97 | 1007.8 |
| 20260506141839 | 15 | 217 | 0.0 | 4.8 | 0.30 | 0.48 | 0.48 | 97 | 1007.8 |
| 20260506141356 | 15 | 243 | 0.0 | 4.8 | 0.30 | 0.48 | 0.48 | 97 | 1007.9 |
| 20260506140853 | 15 | 253 | 0.0 | 4.8 | 0.30 | 0.46 | 0.46 | 97 | 1007.8 |
| 20260506140350 | 15 | 236 | 0.0 | 1.6 | 0.28 | 0.43 | 0.43 | 97 | 1007.7 |
| 20260506135847 | 15 | 235 | 0.0 | 8.0 | 0.18 | 0.33 | 0.33 | 96 | 1007.5 |
| 20260506135403 | 15 | 233 | 0.0 | 8.0 | 0.13 | 0.28 | 0.28 | 96 | 1007.7 |
| 20260506134841 | 15 | 252 | 0.0 | 4.8 | 0.13 | 0.25 | 0.25 | 96 | 1007.9 |
| 20260506134342 | 15 | 239 | 0.0 | 6.4 | 0.10 | 0.23 | 0.23 | 96 | 1007.9 |
| 20260506133837 | 15 | 245 | 0.0 | 6.4 | 0.10 | 0.23 | 0.23 | 95 | 1007.8 |
| 20260506133355 | 15 | 245 | 1.6 | 4.8 | 0.10 | 0.20 | 0.20 | 96 | 1007.9 |
| 20260506132849 | 15 | 245 | 0.0 | 0.0 | 0.10 | 0.18 | 0.18 | 96 | 1007.9 |
| 20260506132346 | 15 | 245 | 0.0 | 1.6 | 0.13 | 0.18 | 0.18 | 96 | 1007.9 |
| 20260506131843 | 15 | 245 | 0.0 | 1.6 | 0.13 | 0.18 | 0.18 | 96 | 1007.9 |
| 20260506131339 | 15 | 245 | 0.0 | 1.6 | 0.13 | 0.18 | 0.18 | 96 | 1008.0 |
| 20260506130915 | 15 | 245 | 0.0 | 0.0 | 0.15 | 0.18 | 0.18 | 96 | 1007.8 |
| 20260506130350 | 15 | 245 | 0.0 | 0.0 | 0.13 | 0.15 | 0.15 | 95 | 1007.9 |
| 20260506125844 | 15 | 245 | 0.0 | 0.0 | 0.13 | 0.15 | 0.15 | 95 | 1008.0 |
| 20260506125342 | 15 | 245 | 0.0 | 0.0 | 0.13 | 0.15 | 0.15 | 94 | 1008.0 |
| 20260506124857 | 15 | 245 | 0.0 | 1.6 | 0.13 | 0.13 | 0.13 | 93 | 1008.0 |
| 20260506124350 | 15 | 244 | 0.0 | 1.6 | 0.13 | 0.13 | 0.13 | 93 | 1008.1 |
| 20260506123847 | 15 | 245 | 0.0 | 0.0 | 0.13 | 0.13 | 0.13 | 93 | 1008.2 |
| 20260506123344 | 15 | 245 | 0.0 | 0.0 | 0.10 | 0.10 | 0.10 | 92 | 1008.3 |
| 20260506122842 | 15 | 245 | 0.0 | 0.0 | 0.08 | 0.08 | 0.08 | 91 | 1008.4 |
| 20260506122338 | 16 | 245 | 0.0 | 1.6 | 0.05 | 0.05 | 0.05 | 90 | 1008.4 |
| 20260506121854 | 16 | 244 | 0.0 | 1.6 | 0.05 | 0.05 | 0.05 | 89 | 1008.5 |
| 20260506121412 | 16 | 245 | 0.0 | 1.6 | 0.05 | 0.05 | 0.05 | 88 | 1008.6 |
| 20260506120848 | 16 | 244 | 0.0 | 3.2 | 0.03 | 0.03 | 0.03 | 87 | 1008.5 |
| 20260506120405 | 16 | 245 | 0.0 | 3.2 | 0.03 | 0.03 | 0.03 | 86 | 1008.4 |
| 20260506115842 | 16 | 244 | 1.6 | 3.2 | 0.03 | 0.03 | 0.03 | 85 | 1008.2 |
| 20260506115339 | 16 | 245 | 0.0 | 0.0 | 0.03 | 0.03 | 0.03 | 84 | 1008.2 |
| 20260506114855 | 16 | 245 | 0.0 | 3.2 | 0.00 | 0.00 | 0.00 | 83 | 1008.0 |
| 20260506114353 | 17 | 245 | 0.0 | 8.0 | 0.00 | 0.00 | 0.00 | 82 | 1008.0 |
| 20260506113849 | 17 | 228 | 0.0 | 8.0 | 0.00 | 0.00 | 0.00 | 80 | 1007.9 |
| 20260506113406 | 17 | 207 | 0.0 | 8.0 | 0.00 | 0.00 | 0.00 | 79 | 1007.8 |
| 20260506112841 | 17 | 248 | 1.6 | 3.2 | 0.00 | 0.00 | 0.00 | 78 | 1007.9 |
| 20260506112338 | 17 | 248 | 0.0 | 3.2 | 0.00 | 0.00 | 0.00 | 78 | 1007.9 |
| 20260506111836 | 17 | 248 | 0.0 | 3.2 | 0.00 | 0.00 | 0.00 | 77 | 1007.8 |
| 20260506111353 | 17 | 248 | 0.0 | 3.2 | 0.00 | 0.00 | 0.00 | 77 | 1007.8 |
| 20260506110849 | 17 | 248 | 0.0 | 1.6 | 0.00 | 0.00 | 0.00 | 77 | 1007.6 |
| 20260506110347 | 16 | 248 | 0.0 | 1.6 | 0.00 | 0.00 | 0.00 | 78 | 1007.6 |
| 20260506105843 | 17 | 203 | 0.0 | 0.0 | 0.00 | 0.00 | 0.00 | 78 | 1007.5 |
| 20260506105340 | 17 | 203 | 0.0 | 0.0 | 0.00 | 0.00 | 0.00 | 77 | 1007.5 |
| 20260506104854 | 17 | 203 | 0.0 | 0.0 | 0.00 | 0.00 | 0.00 | 77 | 1007.5 |
| 20260506104352 | 17 | 203 | 0.0 | 0.0 | 0.00 | 0.00 | 0.00 | 76 | 1007.5 |
| 20260506103851 | 17 | 203 | 0.0 | 1.6 | 0.00 | 0.00 | 0.00 | 75 | 1007.5 |
| 20260506103353 | 17 | 203 | 0.0 | 1.6 | 0.00 | 0.00 | 0.00 | 75 | 1007.4 |
| 20260506102846 | 17 | 101 | 0.0 | 0.0 | 0.00 | 0.00 | 0.00 | 74 | 1007.2 |
| 20260506102343 | 17 | 100 | 0.0 | 1.6 | 0.00 | 0.00 | 0.00 | 74 | 1007.2 |
| 20260506101841 | 17 | 101 | 0.0 | 1.6 | 0.00 | 0.00 | 0.00 | 74 | 1007.2 |
| 20260506101336 | 17 | 101 | 0.0 | 0.0 | 0.00 | 0.00 | 0.00 | 73 | 1007.2 |
| 20260506100853 | 17 | 100 | 0.0 | 1.6 | 0.00 | 0.00 | 0.00 | 73 | 1007.0 |
| 20260506100351 | 17 | 101 | 0.0 | 3.2 | 0.00 | 0.00 | 0.00 | 73 | 1006.9 |
| 20260506095847 | 17 | 97 | 0.0 | 6.4 | 0.00 | 0.00 | 0.00 | 73 | 1006.9 |
| 20260506095345 | 17 | 239 | 0.0 | 6.4 | 0.00 | 0.00 | 0.00 | 73 | 1006.9 |
| 20260506094842 | 17 | 243 | 0.0 | 1.6 | 0.00 | 0.00 | 0.00 | 74 | 1007.0 |
| 20260506094340 | 17 | 243 | 0.0 | 1.6 | 0.00 | 0.00 | 0.00 | 73 | 1007.0 |
| 20260506093836 | 17 | 243 | 0.0 | 0.0 | 0.00 | 0.00 | 0.00 | 73 | 1007.0 |
| 20260506093353 | 17 | 243 | 0.0 | 4.8 | 0.00 | 0.00 | 0.00 | 73 | 1007.0 |
| 20260506092849 | 16 | 260 | 0.0 | 4.8 | 0.00 | 0.00 | 0.00 | 74 | 1007.0 |
| 20260506092344 | 16 | 200 | 0.0 | 4.8 | 0.00 | 0.00 | 0.00 | 75 | 1007.1 |
| 20260506091859 | 16 | 250 | 0.0 | 0.0 | 0.00 | 0.00 | 0.00 | 76 | 1007.1 |
| 20260506091339 | 16 | 250 | 0.0 | 0.0 | 0.00 | 0.00 | 0.00 | 77 | 1007.3 |
| 20260506090855 | 15 | 250 | 0.0 | 0.0 | 0.00 | 0.00 | 0.00 | 78 | 1007.3 |
| 20260506090351 | 15 | 251 | 0.0 | 0.0 | 0.00 | 0.00 | 0.00 | 79 | 1007.4 |
| 20260506085848 | 15 | 250 | 0.0 | 0.0 | 0.00 | 0.00 | 0.00 | 79 | 1007.4 |
| 20260506085344 | 15 | 250 | 0.0 | 0.0 | 0.00 | 0.00 | 0.00 | 78 | 1007.4 |
| 20260506084839 | 15 | 250 | 0.0 | 0.0 | 0.00 | 0.00 | 0.00 | 77 | 1007.3 |
| 20260506084416 | 16 | 250 | 0.0 | 0.0 | 0.00 | 0.00 | 0.00 | 76 | 1007.3 |
| 20260506083850 | 16 | 250 | 0.0 | 0.0 | 0.00 | 0.00 | 0.00 | 74 | 1007.2 |
| 20260506083408 | 16 | 250 | 0.0 | 0.0 | 0.00 | 0.00 | 0.00 | 73 | 1007.2 |
| 20260506082840 | 16 | 251 | 0.0 | 0.0 | 0.00 | 0.00 | 0.00 | 74 | 1007.3 |
| 20260506082414 | 16 | 250 | 0.0 | 0.0 | 0.00 | 0.00 | 0.00 | 74 | 1007.3 |
| 20260506081850 | 16 | 250 | 0.0 | 0.0 | 0.00 | 0.00 | 0.00 | 74 | 1007.3 |
| 20260506081347 | 16 | 249 | 0.0 | 0.0 | 0.00 | 0.00 | 0.00 | 73 | 1007.3 |
| 20260506080843 | 16 | 248 | 0.0 | 0.0 | 0.00 | 0.00 | 0.00 | 73 | 1007.4 |
| 20260506080339 | 16 | 249 | 0.0 | 0.0 | 0.00 | 0.00 | 0.00 | 71 | 1007.3 |